This is the latest recevied weather packets stored in our database for station/object WD9U. If no packets are shown the sender has not sent any weather packets the latest 10 day(s).
| Time | Temp. | Humidity | Pressure | Rain* | Wind** | Luminosity | Snow |
|---|---|---|---|---|---|---|---|
| 1777937470 | 9.44° C | 44% | 1001.4 hPa | 0 mm | - | 123 W/m² | - |
| 1777937110 | 10° C | 45% | 1001.3 hPa | 0 mm | - | 98 W/m² | - |
| 1777936750 | 9.44° C | 45% | 1001.3 hPa | 0 mm | - | 132 W/m² | - |
| 1777936390 | 10° C | 43% | 1001.3 hPa | 0 mm | - | 102 W/m² | - |
| 1777936030 | 10.56° C | 42% | 1001.2 hPa | 0 mm | - | 93 W/m² | - |
| 1777935912 | 10.56° C | 42% | 1001 hPa | 0 mm | - | 142 W/m² | - |
| 1777935670 | 10.56° C | 42% | 1001.2 hPa | 0 mm | - | 378 W/m² | - |
| 1777935310 | 11.11° C | 43% | 1001.2 hPa | 0 mm | - | 428 W/m² | - |
| 1777934950 | 10.56° C | 41% | 1001 hPa | 0 mm | - | 370 W/m² | - |
| 1777934712 | 10.56° C | 41% | 1001.1 hPa | 0 mm | - | 491 W/m² | - |
| 1777934590 | 10.56° C | 41% | 1001 hPa | 0 mm | - | 137 W/m² | - |
| 1777934230 | 10.56° C | 41% | 1001.1 hPa | 0 mm | - | 550 W/m² | - |
| 1777933870 | 11.11° C | 42% | 1000.9 hPa | 0 mm | - | 186 W/m² | - |
| 1777933510 | 11.11° C | 42% | 1000.8 hPa | 0 mm | - | 184 W/m² | - |
| 1777933150 | 11.11° C | 40% | 1000.6 hPa | 0 mm | - | 664 W/m² | - |
| 1777932790 | 11.67° C | 39% | 1000.5 hPa | 0 mm | - | 552 W/m² | - |
| 1777932430 | 11.67° C | 39% | 1000.5 hPa | 0 mm | - | 326 W/m² | - |
| 1777932312 | 11.67° C | 41% | 1000.5 hPa | 0 mm | - | 704 W/m² | - |
| 1777932070 | 11.11° C | 40% | 1000.4 hPa | 0 mm | - | 214 W/m² | - |
| 1777931710 | 11.11° C | 38% | 1000.3 hPa | 0 mm | - | 653 W/m² | - |
| 1777931350 | 11.11° C | 38% | 1000.2 hPa | 0 mm | - | 678 W/m² | - |
| 1777931112 | 11.11° C | 37% | 1000.2 hPa | 0 mm | - | 256 W/m² | - |
| 1777930990 | 11.11° C | 38% | 1000.2 hPa | 0 mm | - | 217 W/m² | - |
| 1777930630 | 11.67° C | 36% | 1000.1 hPa | 0 mm | - | 328 W/m² | - |
| 1777930269 | 11.67° C | 35% | 1000.1 hPa | 0 mm | - | 634 W/m² | - |
* Rain latest hour (hover to see other rain measurements)
** Current wind speed in m/s (hover to see current wind gust speed)